Location: Unspecified
(52.1971°N, 0.0000°E)
Time: 03:37:25
(UTC+00:00)

ISS - Pass Details

Date: 20 May 2019
Orbit: 407 x 419 km, 51.6° (Epoch: 26 June)

Event Time Altitude Azimuth Distance (km) Brightness Sun altitude
Rises 22:09:35 0° 254° (WSW) 2,356 0.2 -14.1°
Reaches altitude 10° 22:11:41 10° 252° (WSW) 1,496 -0.9 -14.2°
Maximum altitude 22:15:02 70° 168° (SSE) 450 -3.9 -14.4°
Drops below altitude 10° 22:18:23 10° 85° (E) 1,505 -1.1 -14.6°
Enters shadow 22:22:02 -5° 82° (E) 3,007 0.4 -14.8°
